CZ-4C DEB, 43338

Orbit data source: Space-Track

CZ-4C DEB, 43338 is space debris in LEO originally from a launch on Tue, 10 Apr 2018 UTC launched from the Jiuquan Satellite Launch Center, China (JSC). Debris objects in space refer to the collection of defunct objects orbiting the Earth. Examples of debris include non-operational satellites, rocket bodies, and fragments generated from explosions, collisions, or faulty payload assembly.

Loading next visibility...
Identifier
43338, 2018-034H
Orbit
LEO
Last TLE update
23 hours ago
Origin
Manufacturer
Unknown
Mission
Spacecraft
Bus & Motor
Unknown
Mass
Unknown
Launch date (UTC)
2018-04-10 (7 years ago)
Launch vehicle
Unknown
Launch site
Jiuquan Satellite Launch Center, China (JSC)
Object type
Payload
Rocket body
Debris
Shape & HBR
Unknown
Radar Cross Section
Small (<0.1 m²)

Expand to show TLE details & history

TLE from 23 hours ago
0 CZ-4C DEB
1 43338U 18034H   25183.56610166 -.00000085  00000-0  75535-5 0  9991
2 43338  63.3972 278.0172 0243677   7.2745 353.1714 13.44697275354840
Epoch: 2025-07-02T13:35Z
TLE epoch observation values (Epoch: 2025-07-02T13:35:11.183Z)
Latitude
0.00003°
Longitude
153.37525°
Altitude
912.911 km
Speed
7.485 km/s
True Right ascension
18h 32m 04s
True Declination
0° 00' 00"
Sunlit
Object was in full shadow at epoch
Visualization orbit readout
Latitude
-62.35988°
Longitude
43.02598°
Altitude
1,159.28 km
Speed
7.252 km/s
Apparent Right ascension
11h 42m 36s
Apparent Declination
-52° 06' 50"
Sunlit
Object is in daylight
Visualization observer readout
Local Sidereal Time
00:05:24
Azimuth
164.034° S
Elevation
-77.186°
Doppler factor
1
Orbital elements
Apogee altitude
1,272.659 km
Perigee altitude
908.664 km
Semi-major axis
7,468.799 km
Eccentricity
0.02437
Inclination
63.3972°
RAAN
278.0172°
Arg. of periapsis
7.2745°
True anomaly
Unknown
Mean anomaly
353.1714°
Eccentric anomaly
Unknown
Mean motion
3.36254 °/min
Orbital period
107.06 mins
BSTAR
0.0000075535
Loading maneuver chart data...
Loading SW <> Apogee altitude chart data...
Loading historical data...
Loading historical data...
Loading historical data...
Loading historical data...
Loading historical data...
Loading historical data...
Loading historical data...

CZ-4C DEB Visibility forecast

Observer location: undefined°, undefined°

Span
Click to sort rows by Start time (UTC) header in descending order
Start Az.
Max El. time (UTC)
Max El. Az.
Max El.
End time (UTC)
End Az.
11 mins2025-07-03 15:03:45.807Z344.507° N2025-07-03 15:09:45.807Z43.648° NE23.849°2025-07-03 15:14:45.807Z89.69° E
13 mins2025-07-03 16:54:45.807Z324.134° NNW2025-07-03 17:00:45.807Z246.392° WSW44.802°2025-07-03 17:07:45.807Z151.907° SSE
7 mins2025-07-03 18:47:45.807Z278.715° WNW2025-07-03 18:50:45.807Z252.508° W15.618°2025-07-03 18:54:45.807Z220.471° SW
8 mins2025-07-04 06:45:45.807Z156.436° SSE2025-07-04 06:49:45.807Z104.515° ESE23.662°2025-07-04 06:53:45.807Z60.414° ENE
11 mins2025-07-04 08:34:45.807Z237.318° WSW2025-07-04 08:39:45.807Z319.367° NNW38.276°2025-07-04 08:45:45.807Z26.44° NE
5 mins2025-07-04 10:29:45.807Z314.17° NW2025-07-04 10:31:45.807Z334.508° NNW14.034°2025-07-04 10:34:45.807Z2.938° NNE
|